Powrót do katalogu

STARLINK-34085

AktywnyŁącznośćVLEO
NORAD 64036·PAYLOAD·🇺🇸 United States

Wystrzelony May 16, 2025 z Vandenberg Space Force Base

Loading…

Następne Przeloty (najbliższe 24 godziny)

TLE

ŚwieżeSource: CelesTrak SupGP

Epoka: Sep 14, 2026, 21:04 UTC

1 64036C 25102Q   26257.87826389 -.00032418  00000+0 -10991-2 0  2570
2 64036  70.0004 355.8307 0003151 271.3236 357.0856 15.30430851    12

Śledź STARLINK-34085 w czasie rzeczywistym z AllMySat

Download on the App Store